Location: B?dimalle
(17.1788°N, 80.5377°E)
Time: 09:54:36
(UTC+00:00)

Tiros 1 despin weight - Pass Details

Date: 19 February 2026
Orbit: 556 x 593 km, 48.2° (Epoch: 10 March)

Event Time Altitude Azimuth Distance (km) Brightness Sun altitude
Rises 15:48:01 0° 335° (NNW) 2,730 - -45.2°
Reaches altitude 10° 15:50:38 10° 350° (N) 1,840 - -45.8°
Maximum altitude 15:53:59 23° 44° (NE) 1,218 - -46.6°
Drops below altitude 10° 15:57:22 10° 97° (E) 1,855 - -47.4°
Sets 16:00:00 0° 112° (ESE) 2,758 - -48.0°
